Home > Weather > Darwin > Past weeks

Flag for Australia Weather for the Past 2 Weeks in Darwin, Northern Territory, Australia

Now
91 °F

Partly sunny.


Feels Like: 103 °F
Forecast: 85 / 92 °F
Wind: 16 mph from Northwest

Location: Darwin Airport

Current Time: Feb 10, 2016 at 5:02:10 PM

Latest Report: Feb 10, 2016 at 4:00 PM


Visibility: N/A

Pressure: 29.65 "Hg

Humidity: 59%

Dew point: 75 °F

Location of DarwinLocation

Historic Weather in Darwin — Graph

°F

Darwin Temperature Yesterday

Maximum temperature yesterday: 93 °F (at 2:00 PM)
Minimum temperature yesterday: 81 °F (at 12:00 AM)
Average temperature yesterday: 85 °F

High & Low Weather Summary for the Past Weeks

 TemperatureHumidityPressure
High93 °F (Feb 9, 2:00 PM)100% (Jan 31, 4:00 AM)29.89 "Hg (Jan 31, 4:00 AM)
Low75 °F (Jan 31, 8:30 AM)52% (Feb 6, 5:30 PM)29.65 "Hg (Feb 6, 4:00 PM)
Average84 °F81%29.76 "Hg
* Reported Jan 26 3:30 PM — Feb 10 3:30 PM, Darwin, Weather by CustomWeather, © 2016

Note: Actual official high and low records may vary slightly from our data, if they occured in-between our weather recording intervals... More about our weather records

Advertising

Darwin Weather History for the Previous 24 Hours

 ConditionsComfort  
Time TempWeatherWind HumidityBarometerVisibility
3:30 PM
Wed, Feb 10
93 °FPartly sunny.17 mph59%29.65 "HgN/A
3:00 PM93 °FPartly sunny.18 mph59%29.65 "HgN/A
2:30 PM91 °FPartly sunny.17 mph63%29.65 "HgN/A
1:30 PM91 °FScattered showers. Scattered clouds.17 mph63%29.71 "HgN/A
1:00 PM91 °FScattered clouds.17 mph63%29.71 "HgN/A
12:30 PM90 °FScattered clouds.17 mph67%29.74 "HgN/A
11:30 AM90 °FScattered clouds.13 mph63%29.74 "HgN/A
10:30 AM90 °FScattered clouds.15 mph67%29.77 "HgN/A
10:00 AM88 °FScattered clouds.16 mph70%29.77 "HgN/A
9:30 AM88 °FScattered clouds.13 mph70%29.77 "HgN/A
9:00 AM88 °FScattered clouds.12 mph70%29.77 "HgN/A
8:30 AM88 °FScattered clouds.12 mph75%29.77 "HgN/A
7:30 AM84 °FScattered clouds.8 mph84%29.74 "HgN/A
6:30 AM84 °FPassing clouds.8 mph84%29.71 "HgN/A
6:00 AM84 °FPassing clouds.8 mph84%29.71 "HgN/A
5:30 AM82 °FPassing clouds.7 mph89%29.71 "HgN/A
5:00 AM81 °FPassing clouds.8 mph94%29.71 "HgN/A
4:30 AM81 °FPassing clouds.6 mph89%29.71 "HgN/A
4:00 AM81 °FPassing clouds.6 mph89%29.71 "HgN/A
3:30 AM82 °FPassing clouds.6 mph84%29.71 "HgN/A
2:30 AM82 °FPassing clouds.No wind84%29.71 "HgN/A
2:00 AM82 °FClear.6 mph84%29.74 "Hg10 mi
1:00 AM82 °FClear.7 mph84%29.74 "Hg10 mi
12:30 AM81 °FClear.6 mph89%29.77 "Hg10 mi
12:00 AM81 °FClear.6 mph89%29.77 "Hg10 mi
11:30 PM
Tue, Feb 9
81 °FClear.6 mph84%29.77 "Hg10 mi
11:00 PM82 °FClear.6 mph79%29.77 "Hg10 mi
10:30 PM82 °FClear.6 mph79%29.77 "Hg10 mi
9:30 PM82 °FPassing clouds.6 mph79%29.77 "HgN/A
9:00 PM82 °FPassing clouds.7 mph74%29.77 "HgN/A
8:30 PM82 °FPartly cloudy.10 mph79%29.77 "HgN/A
7:30 PM81 °FScattered showers. Broken clouds.8 mph84%29.74 "HgN/A
7:00 PM81 °FBroken clouds.7 mph84%29.74 "HgN/A
6:30 PM81 °FPartly sunny.13 mph84%29.74 "HgN/A
5:30 PM81 °FLight rain. Partly sunny.9 mph84%29.74 "HgN/A
Weather by CustomWeather, © 2016

See weather overviewHow to use our weather pages